RULLOA Weather Reports


time (UTC)temp
F
wind
direction
speed
knots
gust
knots
rain 1hr
in
rain 24hr
in
rain mn
in
humidity
%
barometer
mb
20260505083105 78 47 0.0 0.0 0.00 0.00 0.00 1 1007.0
20260505081605 78 31 0.0 0.0 0.00 0.00 0.00 1 1007.2
20260505080058 78 31 0.0 0.0 0.00 0.00 0.00 1 1007.3
20260505074544 78 31 0.0 0.0 0.00 0.00 0.00 1 1007.6
20260505073041 79 31 0.0 0.0 0.00 0.00 0.00 1 1007.7
20260505071542 79 31 0.0 0.0 0.00 0.00 0.00 1 1007.9
20260505070031 79 31 0.0 0.0 0.00 0.00 0.00 1 1008.2
20260505064526 79 31 0.0 0.0 0.00 0.00 0.00 1 1008.4
20260505063022 79 31 0.0 0.0 0.00 0.00 0.00 1 1008.7
20260505061524 80 31 0.0 0.0 0.00 0.00 0.00 1 1009.0
20260505060013 80 31 0.0 0.0 0.00 0.00 0.00 1 1009.2
20260505054509 80 31 0.0 0.0 0.00 0.00 0.00 1 1009.1
20260505053007 80 31 0.0 0.0 0.00 0.00 0.00 1 1009.4
20260505051600 80 76 0.0 0.0 0.00 0.00 0.00 1 1009.4
20260505041542 80 71 0.0 0.0 0.00 0.00 0.00 1 1009.5
20260505040037 80 61 0.0 0.0 0.00 0.00 0.00 1 1009.4
20260505034533 80 61 0.0 0.0 0.00 0.00 0.00 1 1009.5
20260505033029 80 66 0.0 0.0 0.00 0.00 0.00 1 1009.3
20260505031531 81 44 0.0 0.0 0.00 0.00 0.00 1 1009.1
20260505030023 81 42 0.0 0.0 0.00 0.00 0.00 1 1009.1
20260505024520 82 52 0.0 0.0 0.00 0.00 0.00 1 1009.0
20260505023022 82 46 0.0 0.0 0.00 0.00 0.00 9 1009.1
20260505021519 82 59 0.0 0.0 0.00 0.00 0.00 1 1009.0
20260505020015 82 60 0.0 0.0 0.00 0.00 0.00 1 1008.7
20260505014511 83 28 0.0 0.0 0.00 0.00 0.00 1 1008.6
20260505013008 83 28 0.0 0.0 0.00 0.00 0.00 1 1008.2
20260505011503 83 37 0.0 0.0 0.00 0.00 0.00 1 1007.8
20260505010117 83 38 0.0 0.0 0.00 0.00 0.00 1 1007.7
20260505004554 84 38 0.0 0.0 0.00 0.00 0.00 1 1007.5
20260505003054 84 31 0.0 0.0 0.00 0.00 0.00 1 1007.3
20260505001545 85 17 0.0 0.0 0.00 0.00 0.00 1 1007.1
20260505000046 86 135 0.0 0.0 0.00 0.00 0.00 23 1006.8
20260504234536 86 135 0.0 0.0 0.00 0.00 0.00 26 1006.7
20260504233032 86 135 0.0 0.0 0.00 0.00 0.00 28 1006.5
20260504231527 86 136 0.0 0.0 0.00 0.00 0.00 36 1006.2
20260504230036 86 136 0.0 0.0 0.00 0.00 0.00 31 1006.0
20260504224520 86 136 0.0 0.0 0.00 0.00 0.00 22 1005.8
20260504223014 86 136 0.0 0.0 0.00 0.00 0.00 32 1005.7
20260504221520 87 130 0.0 0.0 0.00 0.00 0.00 36 1005.6
20260504220004 87 130 0.0 0.0 0.00 0.00 0.00 45 1005.5
20260504214608 87 130 0.0 0.0 0.00 0.00 0.00 36 1005.7
20260504213111 87 124 0.0 0.0 0.00 0.00 0.00 37 1005.6
20260504211551 87 107 0.0 0.0 0.00 0.00 0.00 40 1005.6
20260504210046 87 153 0.0 0.0 0.00 0.00 0.00 29 1005.7
20260504204542 86 140 0.0 0.0 0.00 0.00 0.00 37 1005.8
20260504203047 87 191 0.0 0.0 0.00 0.00 0.00 34 1005.9
20260504201533 87 135 0.0 0.0 0.00 0.00 0.00 34 1006.0
20260504200029 87 183 0.0 0.0 0.00 0.00 0.00 34 1006.2
20260504194530 87 146 0.0 0.0 0.00 0.00 0.00 39 1006.4
20260504193021 87 138 0.0 0.0 0.00 0.00 0.00 41 1006.7
20260504191522 87 136 0.0 0.0 0.00 0.00 0.00 35 1006.9
20260504190011 87 133 0.0 0.0 0.00 0.00 0.00 31 1007.1
20260504184506 87 111 0.0 0.0 0.00 0.00 0.00 24 1007.3
20260504183002 87 157 0.0 0.0 0.00 0.00 0.00 27 1007.6
20260504181600 87 126 0.0 0.0 0.00 0.00 0.00 31 1007.7
20260504180053 87 121 0.0 0.0 0.00 0.00 0.00 19 1007.9
20260504174548 86 107 0.0 0.0 0.00 0.00 0.00 25 1008.1
20260504173044 87 94 0.0 0.0 0.00 0.00 0.00 28 1008.3
20260504171539 87 121 0.0 0.0 0.00 0.00 0.00 22 1008.4
20260504150112 84 34 0.0 0.0 0.00 0.00 0.00 1 1009.7